Simultaneous Nadir Overpasses (SNOs) Predictions

Prediction of SNOs between FY3D and TERRA Satellite Orbit:

Table of predicted SNOs for the next 14.0 days since TLE Epoch: 5/30/2020
Index Date (FY3D) Time (FY3D) Lat,Lon (FY3D) SZA (FY3D ) Date (TERRA) Time (TERRA) Lat,Lon (TERRA) SZA (TERRA ) Distance(km) Time Diff (sec)
1 05/30/2020 04:46:38 69.00, 107.41 47.05 05/30/2020 04:47:50 68.95, 107.51 47.00 6.60 72
2 05/30/2020 05:37:17 -68.80, -85.00 133.16 05/30/2020 05:37:20 -68.83, -85.00 133.13 3.52 3
3 05/30/2020 06:28:01 68.67, 82.48 46.71 05/30/2020 06:26:48 68.67, 82.44 46.71 1.48 73
4 06/01/2020 21:03:05 69.18,-136.94 46.87 06/01/2020 21:04:16 69.08,-136.44 46.76 22.68 71
5 06/01/2020 21:53:41 -68.82, 30.88 133.50 06/01/2020 21:53:49 -68.80, 30.84 133.52 2.67 8
6 06/01/2020 22:44:25 68.69,-161.64 46.37 06/01/2020 22:43:16 68.69,-161.65 46.37 0.23 69
7 06/04/2020 13:19:30 69.31, -21.21 46.68 06/04/2020 13:20:41 69.21, -20.39 46.57 34.48 71
8 06/04/2020 14:10:04 -68.84, 146.77 133.80 06/04/2020 14:10:16 -68.82, 146.75 133.83 2.32 12
9 06/04/2020 15:00:48 68.72, -45.77 46.08 06/04/2020 14:59:43 68.71, -45.74 46.06 1.61 65
10 06/07/2020 05:35:57 69.50, 94.43 46.60 06/07/2020 05:37:06 69.38, 95.73 46.47 52.21 69
11 06/07/2020 06:26:28 -68.86, -97.35 134.06 06/07/2020 06:26:44 -68.83, -97.35 134.09 3.11 16
12 06/07/2020 07:17:11 68.69, 70.18 45.78 06/07/2020 07:16:11 68.72, 70.15 45.80 2.85 60
13 06/09/2020 21:52:23 69.63,-149.85 46.51 06/09/2020 21:53:31 69.55,-148.16 46.42 66.21 68
14 06/09/2020 22:42:51 -68.83, 18.60 134.31 06/09/2020 22:43:12 -68.84, 18.54 134.30 2.57 21
15 06/09/2020 23:33:35 68.72,-173.95 45.58 06/09/2020 23:32:39 68.72,-173.96 45.58 0.55 56
16 06/12/2020 14:08:49 69.77, -34.14 46.47 06/12/2020 14:09:57 69.66, -32.13 46.35 78.55 68
17 06/12/2020 14:59:15 -68.85, 134.48 134.46 06/12/2020 14:59:40 -68.84, 134.43 134.48 2.35 25
18 06/12/2020 15:49:59 68.75, -58.08 45.44 06/12/2020 15:49:07 68.72, -58.08 45.40 3.69 52




NCC Satellite Simultaneous Nadir Overpasses (SNOs) Prediction Service
